Regional Weather Roundup
Issued by NWS

Home | Current Version | Previous Version | Graphics & Text | Print | Product List | Glossary On
Versions: 1 2 3 4 5 6 7 8 9 10 11 12 13 14 15 16 17 18 19 20 21 22 23 24 25 26 27 28 29 30 31 32 33 34 35 36 37 38 39 40 41 42 43 44 45 46 47 48 49 50
000
ASUS43 KLMK 080110
RWRKY
KENTUCKY REGIONAL WEATHER ROUNDUP
NATIONAL WEATHER SERVICE LOUISVILLE KY
900 PM EDT TUE JUL 07 2015

NOTE "FAIR" INDICATES FEW OR NO CLOUDS BELOW 12,000 FEET
WITH NO SIGNIFICANT WEATHER AND/OR OBSTRUCTIONS TO VISIBILITY.

KYZ001>023-026-027-061>063-070>075-080200-
WESTERN AND SOUTH CENTRAL KENTUCKY

CITY           SKY/WX    TMP DP  RH WIND       PRES   REMARKS
PADUCAH        LGT RAIN  75  72  90 SW8       30.00R
HENDERSON      CLOUDY    73  70  88 S5        29.97R
OWENSBORO      CLOUDY    74  72  93 SW9       29.99R
HOPKINSVILLE   LGT RAIN  73  72  94 N5        30.02R
BOWLING GREEN  LGT RAIN  72  68  87 SW6       30.05R FOG
GLASGOW        CLOUDY    78  69  74 W16G22    30.06R THUNDER
$$

KYZ024-025-028>034-038-045-046-053-080200-
NORTH CENTRAL KENTUCKY

CITY           SKY/WX    TMP DP  RH WIND       PRES   REMARKS
LOUISVILLE/SDF CLOUDY    75  73  93 SE6       29.98R
LOUISVILLE/LOU CLOUDY    76  73  91 CALM      29.99R
FORT KNOX      CLOUDY    73  72  94 SE3       29.98R
$$

KYZ035>037-039>044-047>052-055>060-089>105-080200-
NORTHEAST KENTUCKY

CITY           SKY/WX    TMP DP  RH WIND       PRES   REMARKS
LEXINGTON      CLOUDY    71  69  93 S6        30.03R
COVINGTON      CLOUDY    72  70  93 SW6       29.97S
FRANKFORT      CLOUDY    72  69  90 CALM      30.00S
$$

KYZ054-064>069-076>088-106>120-080200-
SOUTHEAST KENTUCKY

CITY           SKY/WX    TMP DP  RH WIND       PRES   REMARKS
JACKSON        CLOUDY    77  69  76 VRB3      30.05S
LONDON         CLOUDY    81  66  60 SW5       30.06R
SOMERSET       CLOUDY    77  68  73 S5        30.05F
MIDDLESBORO    MOCLDY    79  73  82 CALM      30.08S
MONTICELLO     CLOUDY    78  74  87 CALM      30.08R
$$



USA.gov is the U.S. government's official web portal to all federal, state and local government web resources and services.